N0WXR Weather Reports


Display with metric or nautical units.
time (UTC)temp
F
wind
direction
speed
MPH
gust
MPH
rain 1hr
in
rain 24hr
in
rain mn
in
humidity
%
barometer
mb
20260906064752 70 129 0.0 0.0 0.00 0.00 0.00 99 990.5
20260906064253 71 283 0.0 0.0 0.00 0.00 0.00 99 990.9
20260906063752 71 269 0.0 1.0 0.00 0.00 0.00 99 990.5
20260906063252 71 89 0.0 1.0 0.00 0.00 0.00 99 990.9
20260906062752 71 263 0.0 1.0 0.00 0.00 0.00 99 990.9
20260906062253 71 284 0.0 0.0 0.00 0.00 0.00 99 991.2
20260906061753 71 248 0.0 1.0 0.00 0.00 0.00 99 991.2
20260906061253 71 59 0.0 1.0 0.00 0.00 0.00 99 991.2
20260906060753 71 255 0.0 0.0 0.00 0.00 0.00 99 991.2
20260906060254 71 330 0.0 1.0 0.00 0.00 0.00 99 991.2
20260906055752 71 129 0.0 0.0 0.00 0.00 0.00 99 991.5
20260906055252 71 329 0.0 1.0 0.00 0.00 0.00 98 991.5
20260906054753 71 101 0.0 1.0 0.00 0.00 0.00 98 991.5
20260906054252 71 253 0.0 0.0 0.00 0.00 0.00 98 991.5
20260906053753 71 224 0.0 0.0 0.00 0.00 0.00 98 991.5
20260906053252 71 224 0.0 1.0 0.00 0.00 0.00 98 991.9
20260906052752 71 205 0.0 0.0 0.00 0.00 0.00 98 991.5
20260906052252 71 110 0.0 0.0 0.00 0.00 0.00 98 991.9
20260906051752 71 242 0.0 0.0 0.00 0.00 0.00 97 991.9
20260906051252 71 264 1.0 2.0 0.00 0.00 0.00 98 991.5
20260906050752 71 261 0.0 2.0 0.00 0.00 0.00 97 991.9
20260906050254 71 104 0.0 1.0 0.00 0.00 0.00 97 991.5
20260906045754 71 246 0.0 2.0 0.00 0.00 0.00 97 991.9
20260906045252 71 104 0.0 0.0 0.00 0.00 0.00 97 991.9
20260906044752 71 269 0.0 0.0 0.00 0.00 0.00 97 991.5
20260906044253 71 281 0.0 1.0 0.00 0.00 0.00 96 991.9
20260906043752 71 225 0.0 1.0 0.00 0.00 0.00 95 991.5
20260906043252 71 44 0.0 0.0 0.00 0.00 0.00 95 991.9
20260906042752 72 147 0.0 0.0 0.00 0.00 0.00 95 991.9
20260906042252 72 62 0.0 0.0 0.00 0.00 0.00 94 991.9
20260906041752 72 242 0.0 1.0 0.00 0.00 0.00 94 992.2
20260906041252 72 230 0.0 1.0 0.00 0.00 0.00 94 991.9
20260906040752 72 309 0.0 0.0 0.00 0.00 0.00 94 992.2
20260906040252 72 69 0.0 0.0 0.00 0.00 0.00 94 992.2
20260906035752 72 217 0.0 2.0 0.00 0.00 0.02 94 992.2
20260906035253 72 135 0.0 1.0 0.00 0.00 0.02 94 992.6
20260906034752 71 250 1.0 1.0 0.00 0.00 0.02 95 992.2
20260906034253 71 226 0.0 0.0 0.00 0.00 0.02 95 992.6
20260906033752 72 203 0.0 1.0 0.00 0.00 0.02 94 992.2
20260906033252 72 269 0.0 1.0 0.00 0.00 0.02 94 992.2
20260906032753 72 246 0.0 1.0 0.00 0.00 0.02 94 992.2
20260906032253 72 242 0.0 1.0 0.00 0.00 0.02 94 992.6
20260906031752 72 119 0.0 1.0 0.00 0.00 0.02 94 992.6
20260906031253 72 301 0.0 1.0 0.00 0.00 0.02 94 992.6
20260906030752 72 316 0.0 1.0 0.00 0.00 0.02 93 992.6
20260906030252 72 242 0.0 1.0 0.00 0.00 0.02 93 992.2
20260906025753 72 217 0.0 0.0 0.00 0.00 0.02 93 992.2
20260906025253 72 269 0.0 0.0 0.00 0.00 0.02 92 992.2
20260906024752 72 69 0.0 1.0 0.00 0.00 0.02 92 991.9
20260906024252 72 142 0.0 1.0 0.00 0.00 0.02 92 991.9
20260906023752 72 255 0.0 1.0 0.00 0.00 0.02 92 991.9
20260906023252 72 75 0.0 0.0 0.00 0.00 0.02 91 991.9
20260906022752 72 113 0.0 0.0 0.00 0.00 0.02 91 991.9
20260906022253 73 256 0.0 1.0 0.00 0.00 0.02 90 991.9
20260906021752 73 283 0.0 0.0 0.00 0.00 0.02 90 991.9
20260906021252 73 269 0.0 0.0 0.00 0.00 0.02 90 991.9
20260906020752 73 233 0.0 1.0 0.00 0.00 0.02 89 991.5
20260906020252 73 224 0.0 0.0 0.00 0.00 0.02 89 991.9
20260906015752 73 269 0.0 0.0 0.00 0.00 0.02 88 991.9
20260906015252 73 255 0.0 1.0 0.00 0.00 0.02 87 991.9
20260906014752 73 242 0.0 0.0 0.00 0.00 0.02 87 991.9
20260906014252 74 242 0.0 0.0 0.00 0.00 0.02 86 991.9
20260906013752 74 269 0.0 0.0 0.00 0.00 0.02 85 991.9
20260906013252 74 209 0.0 0.0 0.00 0.00 0.02 85 991.9
20260906012752 74 224 0.0 0.0 0.00 0.00 0.02 84 991.9
20260906012252 75 135 0.0 0.0 0.00 0.00 0.02 84 991.9
20260906011752 75 75 0.0 1.0 0.00 0.00 0.02 83 991.9
20260906011252 75 224 0.0 1.0 0.00 0.00 0.02 83 991.9
20260906010752 75 304 0.0 2.0 0.00 0.00 0.02 83 991.5
20260906010252 75 129 0.0 0.0 0.00 0.00 0.02 83 991.9
20260906005752 75 242 0.0 0.0 0.00 0.00 0.02 81 991.9
20260906005252 75 335 0.0 0.0 0.00 0.00 0.02 81 991.5
20260906004752 75 62 0.0 0.0 0.00 0.00 0.02 81 991.2
20260906004254 75 255 0.0 1.0 0.00 0.00 0.02 81 991.2
20260906003752 76 269 0.0 0.0 0.00 0.00 0.02 80 991.2
20260906003252 76 273 0.0 0.0 0.00 0.00 0.02 79 991.2
20260906002752 76 297 0.0 0.0 0.00 0.00 0.02 78 991.2
20260906002252 77 255 0.0 1.0 0.00 0.00 0.02 76 991.2
20260906001752 77 284 0.0 0.0 0.00 0.00 0.02 76 991.2
20260906001253 77 49 0.0 0.0 0.00 0.00 0.02 74 991.2
20260906000752 77 135 0.0 0.0 0.00 0.00 0.02 73 991.5
20260906000252 78 255 0.0 1.0 0.00 0.00 0.02 72 991.2
20260905235752 78 246 1.0 1.0 0.00 0.00 0.02 73 991.2
20260905235252 79 142 0.0 0.0 0.00 0.00 0.02 73 991.2
20260905234752 79 118 0.0 0.0 0.00 0.00 0.02 71 990.9
20260905234252 80 253 0.0 1.0 0.00 0.00 0.02 70 990.9
20260905233753 80 260 0.0 0.0 0.00 0.00 0.02 68 990.9
20260905233252 81 117 0.0 1.0 0.00 0.00 0.02 68 990.9
20260905232752 82 255 0.0 0.0 0.00 0.00 0.02 65 990.5
20260905232252 83 135 0.0 0.0 0.00 0.00 0.02 62 990.5
20260905231752 84 231 0.0 0.0 0.00 0.00 0.02 61 990.5
20260905231252 84 50 0.0 0.0 0.00 0.00 0.02 62 990.2
20260905230752 84 255 0.0 0.0 0.00 0.00 0.02 61 990.5
20260905230252 84 315 0.0 0.0 0.00 0.00 0.02 59 990.5
20260905225752 84 135 0.0 0.0 0.00 0.00 0.02 58 990.2
20260905225252 84 235 0.0 1.0 0.00 0.00 0.02 59 990.2
20260905224753 84 92 0.0 1.0 0.00 0.00 0.02 55 990.2
20260905224252 85 244 1.0 2.0 0.00 0.00 0.02 55 990.2
20260905223752 85 254 0.0 1.0 0.00 0.00 0.02 55 990.5
20260905223252 85 224 0.0 1.0 0.00 0.00 0.02 55 990.5
20260905222752 85 215 0.0 6.0 0.00 0.00 0.02 53 990.5
20260905222252 85 252 2.0 4.0 0.00 0.00 0.02 53 990.5
20260905221752 84 243 0.0 4.0 0.00 0.00 0.02 53 990.2
20260905221253 84 81 1.0 4.0 0.00 0.00 0.02 54 990.2
20260905220752 83 276 1.0 4.0 0.00 0.00 0.02 54 990.5
20260905220252 83 332 0.0 5.0 0.00 0.00 0.02 53 990.2
20260905215752 83 208 0.0 9.0 0.00 0.00 0.02 54 990.2
20260905215253 83 216 3.0 5.0 0.00 0.00 0.02 54 990.2
20260905214752 84 253 2.0 3.0 0.01 0.00 0.02 56 990.2
20260905214252 84 233 2.0 5.0 0.01 0.00 0.02 56 990.5
20260905213752 83 304 1.0 2.0 0.02 0.00 0.02 62 990.5
20260905213252 82 232 3.0 7.0 0.02 0.00 0.02 63 990.5
20260905212752 81 257 1.0 2.0 0.02 0.00 0.02 68 990.5
20260905212254 80 284 2.0 3.0 0.02 0.00 0.02 74 991.2
20260905211752 80 44 0.0 0.0 0.02 0.00 0.02 75 991.2
20260905211252 80 268 2.0 3.0 0.02 0.00 0.02 73 991.5
20260905210754 80 259 2.0 3.0 0.02 0.00 0.02 76 991.5
20260905210254 81 140 0.0 1.0 0.02 0.00 0.02 73 991.5
20260905205754 81 230 0.0 3.0 0.02 0.00 0.02 72 991.5
20260905205252 82 228 0.0 4.0 0.01 0.00 0.02 70 990.9
20260905204752 83 214 0.0 2.0 0.01 0.00 0.02 67 990.9
20260905204253 84 222 2.0 5.0 0.01 0.00 0.01 61 991.2
20260905203752 85 206 0.0 4.0 0.00 0.00 0.01 58 990.9
20260905203252 85 233 0.0 3.0 0.00 0.00 0.00 58 991.2
20260905202752 86 242 0.0 3.0 0.00 0.00 0.00 57 991.2
20260905202253 86 239 7.0 12.0 0.00 0.00 0.00 55 991.5
20260905201753 87 248 2.0 3.0 0.00 0.00 0.00 57 991.5
20260905201253 87 178 2.0 4.0 0.00 0.00 0.00 55 991.2
20260905200752 87 274 2.0 3.0 0.00 0.00 0.00 55 990.9
20260905200252 87 340 0.0 2.0 0.00 0.00 0.00 35 990.9
20260905195752 89 129 0.0 0.0 0.00 0.00 0.00 31 990.2
20260905195252 91 284 0.0 1.0 0.00 0.00 0.00 33 990.2
20260905194756 93 227 3.0 3.0 0.00 0.00 0.00 49 990.2
20260905194252 93 133 0.0 3.0 0.00 0.00 0.00 49 990.2
20260905193754 94 164 0.0 1.0 0.00 0.00 0.00 48 990.2
20260905193252 95 227 0.0 2.0 0.00 0.00 0.00 46 989.8
20260905192752 96 274 1.0 2.0 0.00 0.00 0.00 46 990.2
20260905192253 97 98 3.0 3.0 0.00 0.00 0.00 45 990.2
20260905191753 97 152 4.0 5.0 0.00 0.00 0.00 43 990.2
20260905191253 98 343 2.0 2.0 0.00 0.00 0.00 43 990.2
20260905190753 98 151 2.0 5.0 0.00 0.00 0.00 42 990.2
20260905190252 98 313 3.0 5.0 0.00 0.00 0.00 40 990.2
20260905185752 98 238 2.0 3.0 0.00 0.00 0.00 41 990.5
20260905185252 97 176 2.0 4.0 0.00 0.00 0.00 42 990.5
20260905184752 96 224 4.0 4.0 0.00 0.00 0.00 42 990.5
20260905184252 96 195 3.0 6.0 0.00 0.00 0.00 44 990.5
20260905183752 96 229 0.0 3.0 0.00 0.00 0.00 43 990.9
20260905183252 96 136 4.0 6.0 0.00 0.00 0.00 44 990.5
20260905182752 96 244 2.0 5.0 0.00 0.00 0.00 43 990.5
20260905182252 96 135 3.0 7.0 0.00 0.00 0.00 41 990.9
20260905181752 96 334 1.0 3.0 0.00 0.00 0.00 43 990.9
20260905181252 96 262 1.0 5.0 0.00 0.00 0.00 43 991.2
20260905180752 95 310 0.0 4.0 0.00 0.00 0.00 47 991.2
20260905180252 95 272 2.0 3.0 0.00 0.00 0.00 48 991.2
20260905175753 95 184 2.0 3.0 0.00 0.00 0.00 47 991.2
20260905175252 95 249 0.0 2.0 0.00 0.00 0.00 45 991.2
20260905174752 95 269 0.0 3.0 0.00 0.00 0.00 46 991.9
20260905174252 95 23 2.0 3.0 0.00 0.00 0.00 45 991.5
20260905173752 94 278 1.0 3.0 0.00 0.00 0.00 46 991.5
20260905173252 94 181 2.0 4.0 0.00 0.00 0.00 50 991.9
20260905172753 95 191 1.0 3.0 0.00 0.00 0.00 49 991.9
20260905172252 95 253 0.0 3.0 0.00 0.00 0.00 47 992.2
20260905171752 95 276 2.0 3.0 0.00 0.00 0.00 49 992.2
20260905171252 95 278 0.0 2.0 0.00 0.00 0.00 49 992.2
20260905170752 95 283 1.0 2.0 0.00 0.00 0.00 49 992.6
20260905170253 95 27 0.0 3.0 0.00 0.00 0.00 50 992.6
20260905165752 96 299 0.0 3.0 0.00 0.00 0.00 48 992.6
20260905165253 96 278 0.0 2.0 0.00 0.00 0.00 49 992.6
20260905164752 96 232 1.0 3.0 0.00 0.00 0.00 48 992.6
20260905164252 94 277 2.0 2.0 0.00 0.00 0.00 50 992.6
20260905163753 94 359 0.0 2.0 0.00 0.00 0.00 52 992.9
20260905163252 95 74 1.0 1.0 0.00 0.00 0.00 53 992.9
20260905162752 96 331 0.0 2.0 0.00 0.00 0.00 49 992.9
20260905162253 97 129 0.0 0.0 0.00 0.00 0.00 52 992.9
20260905161753 98 330 0.0 1.0 0.00 0.00 0.00 50 992.6
20260905161253 99 117 0.0 2.0 0.00 0.00 0.00 47 992.9
20260905160752 98 336 0.0 0.0 0.00 0.00 0.00 47 992.9
20260905160253 96 286 0.0 1.0 0.00 0.00 0.00 51 992.9
20260905155753 96 297 0.0 0.0 0.00 0.00 0.00 54 993.2
20260905155252 95 297 0.0 1.0 0.00 0.00 0.00 57 992.9
20260905154752 93 277 0.0 2.0 0.00 0.00 0.00 57 992.9
20260905154253 92 269 0.0 1.0 0.00 0.00 0.00 62 993.2
20260905153752 91 89 0.0 5.0 0.00 0.00 0.00 62 993.2
20260905153252 92 159 2.0 2.0 0.00 0.00 0.00 60 993.2
20260905152752 91 265 2.0 4.0 0.00 0.00 0.00 61 993.2
20260905152253 91 175 0.0 3.0 0.00 0.00 0.00 60 993.2
20260905151752 90 108 0.0 2.0 0.00 0.00 0.00 61 992.9
20260905151253 92 92 2.0 3.0 0.00 0.00 0.00 58 993.2
20260905150752 91 249 2.0 3.0 0.00 0.00 0.00 61 993.2
20260905150252 94 97 4.0 4.0 0.00 0.00 0.00 58 993.6
20260905145752 90 210 0.0 2.0 0.00 0.00 0.00 65 993.6
20260905145252 89 77 1.0 2.0 0.00 0.00 0.00 68 993.2
20260905144752 88 97 1.0 2.0 0.00 0.00 0.00 68 993.2
20260905144252 86 231 0.0 2.0 0.00 0.00 0.00 75 993.2
20260905143753 85 269 0.0 2.0 0.00 0.00 0.00 76 993.2
20260905143253 84 269 0.0 0.0 0.00 0.00 0.00 78 993.2
20260905142752 84 315 0.0 0.0 0.00 0.00 0.00 77 993.6
20260905142252 84 269 0.0 1.0 0.00 0.00 0.00 78 993.6
20260905141752 83 89 1.0 2.0 0.00 0.00 0.00 79 993.6
20260905141254 83 147 0.0 0.0 0.00 0.00 0.00 79 993.6
20260905140753 83 69 0.0 0.0 0.00 0.00 0.00 79 993.6
20260905140252 82 246 0.0 0.0 0.00 0.00 0.00 81 993.6
20260905135752 82 224 0.0 3.0 0.00 0.00 0.00 81 993.6
20260905135253 82 180 0.0 0.0 0.00 0.00 0.00 82 993.6
20260905134752 82 31 0.0 2.0 0.00 0.00 0.00 82 993.6
20260905134252 82 265 0.0 1.0 0.00 0.00 0.00 82 993.6
20260905133752 82 272 0.0 3.0 0.00 0.00 0.00 81 993.6
20260905133252 83 71 2.0 4.0 0.00 0.00 0.00 78 993.6
20260905132752 82 196 2.0 2.0 0.00 0.00 0.00 81 993.9
20260905132253 81 38 0.0 2.0 0.00 0.00 0.00 83 993.9
20260905131752 81 117 0.0 2.0 0.00 0.00 0.00 83 993.6
20260905131252 82 233 1.0 5.0 0.00 0.00 0.00 81 993.6
20260905130752 81 142 0.0 1.0 0.00 0.00 0.00 84 993.9
20260905130253 80 84 4.0 4.0 0.00 0.00 0.00 86 993.9
20260905125752 79 130 0.0 2.0 0.00 0.00 0.00 88 993.9
20260905125253 78 63 3.0 4.0 0.00 0.00 0.00 90 994.2
20260905124752 78 205 0.0 2.0 0.00 0.00 0.00 91 993.6
20260905124252 78 84 2.0 3.0 0.00 0.00 0.00 91 993.9
20260905123752 77 65 6.0 6.0 0.00 0.00 0.00 91 993.9
20260905123253 77 202 0.0 1.0 0.00 0.00 0.00 94 994.2
20260905122752 75 60 2.0 2.0 0.00 0.00 0.00 99 993.9
20260905122252 75 135 0.0 2.0 0.00 0.00 0.00 99 994.2
20260905121752 75 258 0.0 1.0 0.00 0.00 0.00 99 993.9
20260905121252 74 299 0.0 1.0 0.00 0.00 0.00 99 993.9
20260905120752 74 131 0.0 1.0 0.00 0.00 0.00 99 993.9
20260905120253 74 243 0.0 1.0 0.00 0.00 0.00 99 993.9
20260905115752 74 202 0.0 1.0 0.00 0.00 0.00 99 993.6
20260905115252 74 284 0.0 1.0 0.00 0.00 0.00 99 993.9
20260905114753 74 256 0.0 1.0 0.00 0.00 0.00 99 993.6
20260905114252 73 135 0.0 1.0 0.00 0.00 0.00 99 993.6
20260905113752 73 293 0.0 0.0 0.00 0.00 0.00 99 993.6
20260905113253 73 284 0.0 1.0 0.00 0.00 0.00 99 993.6
20260905112754 73 269 0.0 0.0 0.00 0.00 0.00 99 993.6
20260905112253 73 242 0.0 0.0 0.00 0.00 0.00 99 993.6
20260905111752 73 257 0.0 0.0 0.00 0.00 0.00 99 993.2
20260905111254 73 260 0.0 0.0 0.00 0.00 0.00 99 993.2
20260905110752 73 245 0.0 0.0 0.00 0.00 0.00 99 993.2
20260905110252 73 224 0.0 0.0 0.00 0.00 0.00 99 993.2
20260905105753 73 224 0.0 0.0 0.00 0.00 0.00 99 992.9
20260905105255 73 269 0.0 0.0 0.00 0.00 0.00 99 992.6
20260905104752 73 230 0.0 0.0 0.00 0.00 0.00 99 992.9
20260905104252 73 256 0.0 0.0 0.00 0.00 0.00 99 992.6
20260905103752 73 180 0.0 0.0 0.00 0.00 0.00 99 992.6
20260905103252 73 162 0.0 0.0 0.00 0.00 0.00 99 992.6
20260905102752 73 321 0.0 0.0 0.00 0.00 0.00 99 992.6
20260905102252 73 269 0.0 0.0 0.00 0.00 0.00 99 992.6
20260905101752 73 269 0.0 0.0 0.00 0.00 0.00 99 992.6
20260905101252 73 269 0.0 0.0 0.00 0.00 0.00 99 992.6
20260905100753 73 284 0.0 0.0 0.00 0.00 0.00 99 992.6
20260905100252 73 269 0.0 0.0 0.00 0.00 0.00 99 992.2
20260905095754 73 224 0.0 0.0 0.00 0.00 0.00 99 992.2
20260905095252 74 269 0.0 0.0 0.00 0.00 0.00 99 992.2
20260905094752 73 218 0.0 1.0 0.00 0.00 0.00 99 992.2
20260905094252 73 243 0.0 0.0 0.00 0.00 0.00 99 992.2
20260905093752 74 224 0.0 1.0 0.00 0.00 0.00 99 992.2
20260905093252 74 224 0.0 0.0 0.00 0.00 0.00 99 992.2
20260905092753 74 269 0.0 0.0 0.00 0.00 0.00 99 992.2
20260905092252 74 224 0.0 1.0 0.00 0.00 0.00 99 992.2
20260905091753 74 214 0.0 0.0 0.00 0.00 0.00 98 992.2
20260905091252 74 224 0.0 0.0 0.00 0.00 0.00 98 992.6
20260905090752 74 224 0.0 0.0 0.00 0.00 0.00 98 992.6
20260905090253 74 309 0.0 0.0 0.00 0.00 0.00 98 992.6
20260905085752 74 230 0.0 0.0 0.00 0.00 0.00 98 992.6
20260905085253 74 89 0.0 0.0 0.00 0.00 0.00 98 992.6
20260905084752 74 135 0.0 0.0 0.00 0.00 0.00 98 992.6
20260905084252 74 230 0.0 1.0 0.00 0.00 0.00 98 992.6
20260905083752 74 224 0.0 0.0 0.00 0.00 0.00 98 992.6
20260905083252 74 256 0.0 1.0 0.00 0.00 0.00 98 992.6
20260905082752 74 224 0.0 1.0 0.00 0.00 0.00 98 992.6
20260905082252 74 297 0.0 0.0 0.00 0.00 0.00 98 992.9
20260905081752 74 242 0.0 0.0 0.00 0.00 0.00 98 992.9
20260905081252 74 224 0.0 0.0 0.00 0.00 0.00 98 992.9
20260905080752 74 224 0.0 1.0 0.00 0.00 0.00 98 992.9
20260905080253 74 249 0.0 0.0 0.00 0.00 0.00 98 992.9
20260905075752 74 242 0.0 0.0 0.00 0.00 0.00 99 992.9
20260905075253 74 129 0.0 0.0 0.00 0.00 0.00 98 992.9
20260905074753 74 217 0.0 0.0 0.00 0.00 0.00 98 993.2
20260905074252 74 246 0.0 0.0 0.00 0.00 0.00 98 993.2
20260905073752 74 246 0.0 0.0 0.00 0.00 0.00 98 993.2
20260905073252 74 62 0.0 0.0 0.00 0.00 0.00 98 993.2
20260905072752 74 269 0.0 0.0 0.00 0.00 0.00 98 993.2
20260905072253 74 216 0.0 1.0 0.00 0.00 0.00 98 993.2
20260905071753 74 269 0.0 0.0 0.00 0.00 0.00 97 993.2
20260905071252 74 290 0.0 0.0 0.00 0.00 0.00 96 993.6
20260905070752 74 217 0.0 1.0 0.00 0.00 0.00 96 993.2
20260905070253 75 230 0.0 1.0 0.00 0.00 0.00 95 993.6
20260905065752 75 246 0.0 0.0 0.00 0.00 0.00 94 993.6
20260905065252 75 117 0.0 0.0 0.00 0.00 0.00 93 993.6